Location: Barcelona
(41.3830°N, 2.1830°E)
Time: 22:54:57
(UTC+02:00)

ISS - Pass Details

Date: 23 May 2019
Orbit: 408 x 418 km, 51.6° (Epoch: 26 May)

Event Time Altitude Azimuth Distance (km) Brightness Sun altitude
Rises 21:47:48 0° 260° (W) 2,339 0.8 -6.7°
Reaches altitude 10° 21:50:03 10° 271° (W) 1,481 0.0 -7.1°
Maximum altitude 21:53:02 30° 335° (NNW) 773 -1.6 -7.5°
Drops below altitude 10° 21:56:02 10° 39° (NE) 1,492 -1.0 -8.0°
Sets 21:58:18 0° 51° (NE) 2,359 -0.1 -8.3°
